OSCAR 7 (AO-7) 1 07530U 74089B 26257.54007876 -.00000046 00000+0 36753-5 0 9991 2 07530 101.9919 271.7209 0012040 322.1588 206.0208 12.53699636371718 PHASE 3B (AO-10) 1 14129U 83058B 26253.81923402 -.00000299 00000+0 00000+0 0 9997 2 14129 25.9748 205.5539 5983154 139.1490 286.0555 2.05871418297257 UOSAT 2 (UO-11) 1 14781U 84021B 26257.61916841 .00000985 00000+0 10536-3 0 9993 2 14781 97.8169 222.2563 0006105 243.8111 116.2480 14.90990555270454 LUSAT (LO-19) 1 20442U 90005G 26257.48512804 .00000054 00000+0 36164-4 0 9992 2 20442 98.8823 281.7394 0010635 307.5219 52.4997 14.34143814915192 EYESAT A (AO-27) 1 22825U 93061C 26257.92129732 .00000066 00000+0 42024-4 0 9992 2 22825 98.6796 325.2646 0008182 189.5370 170.5658 14.30961245719831 ITAMSAT (IO-26) 1 22826U 93061D 26257.17488645 .00000067 00000+0 42004-4 0 9990 2 22826 98.6745 324.4460 0008986 175.1252 185.0020 14.31389938720046 RADIO ROSTO (RS15) 1 23439U 94085A 26257.95799756 -.00000047 00000+0 -12011-3 0 9996 2 23439 64.8160 158.0309 0159126 347.7367 11.9705 11.27583974306026 JAS-2 (FO-29) 1 24278U 96046B 26257.77000938 -.00000013 00000+0 23965-4 0 9997 2 24278 98.5169 94.3605 0349155 223.8390 133.4549 13.53278006485285 TECHSAT 1B (GO-32) 1 25397U 98043D 26257.41299807 .00000025 00000+0 30886-4 0 9997 2 25397 99.0152 252.4556 0001057 13.7115 346.4091 14.24442711464038 ISS (ZARYA) 1 25544U 98067A 26257.85283187 .00006182 00000+0 11980-3 0 9992 2 25544 51.6309 216.3169 0004922 141.7352 218.3986 15.49117649585657 PCSAT (NO-44) 1 26931U 01043C 26256.72239409 .00000058 00000+0 52735-4 0 9994 2 26931 67.0528 15.2724 0005736 272.4834 87.5611 14.31983338303123 SAUDISAT 1C (SO-50) 1 27607U 02058C 26257.29580827 .00000780 00000+0 10940-3 0 9991 2 27607 64.5515 213.2481 0072027 246.1134 113.2415 14.83210726277670 CUTE-1 (CO-55) 1 27844U 03031E 26257.88277865 .00000203 00000+0 10655-3 0 9999 2 27844 98.6771 265.3288 0008416 287.5666 72.4594 14.24381321204442 CUBESAT XI-IV (CO-57) 1 27848U 03031J 26257.49476793 .00000148 00000+0 84046-4 0 9995 2 27848 98.6802 264.5861 0008535 310.1780 49.8651 14.23659826204080 MOZHAETS 4 (RS22) 1 27939U 03042A 26257.99913046 .00000860 00000+0 14033-3 0 9999 2 27939 98.3475 84.9210 0011164 350.5169 162.2039 14.73600593228771 CUBESAT XI-V 1 28895U 05043F 26256.99833255 .00000951 00000+0 15688-3 0 9994 2 28895 98.3102 54.5582 0012772 285.1732 74.8062 14.72824341114822 CUTE-1.7+APD II (CO-65) 1 32785U 08021C 26257.91802353 .00004732 00000+0 29375-3 0 9993 2 32785 97.8375 241.2989 0010387 84.5458 275.6955 15.10162595998734 SEEDS II (CO-66) 1 32791U 08021J 26257.75256800 .00016575 00000+0 48157-3 0 9999 2 32791 97.7564 260.1472 0003013 41.9825 318.1648 15.35554944 1018 YUBILEINY (RS30) 1 32953U 08025A 26257.91202470 .00000072 00000+0 44192-3 0 9995 2 32953 82.5023 299.6377 0020686 114.9680 245.3552 12.43183195830844 KKS-1 (KISEKI) 1 33499U 09002H 26257.91322555 .00001107 00000+0 14198-3 0 9997 2 33499 98.1161 181.7730 0008088 9.9383 350.1989 14.83314594949491 SWISSCUBE 1 35932U 09051B 26257.17516900 .00000727 00000+0 15278-3 0 9999 2 35932 98.3945 166.5801 0005717 304.2301 55.8358 14.62622865902166 BEESAT-1 1 35933U 09051C 26257.71077140 .00000610 00000+0 13190-3 0 9990 2 35933 98.3870 166.5701 0004467 322.1665 37.9221 14.61839602902265 ITUPSAT1 1 35935U 09051E 26256.68420965 .00000565 00000+0 12647-3 0 9999 2 35935 98.3950 164.6240 0006933 334.1895 25.8958 14.60549775901654 XIWANG-1 (HOPE-1) 1 36122U 09072B 26257.92275035 .00000117 00000+0 42335-3 0 9995 2 36122 100.4120 210.3509 0008001 32.9676 327.1935 13.16441638804814 O/OREOS (USA 219) 1 37224U 10062C 26257.05555476 .00001693 00000+0 16417-3 0 9996 2 37224 71.9679 238.9835 0016579 257.8903 102.0410 14.94034276129919 JUGNU 1 37839U 11058B 26257.03015134 .00000409 00000+0 73973-4 0 9999 2 37839 19.9599 128.6587 0018474 337.7588 165.6952 14.13797943771610 SRMSAT 1 37841U 11058D 26257.07776403 .00000374 00000+0 59220-4 0 9999 2 37841 19.9710 241.4257 0011984 101.9182 322.2174 14.11592249770397 STRAND-1 1 39090U 13009E 26257.44890170 .00000177 00000+0 73725-4 0 9991 2 39090 98.3970 75.5185 0008004 331.4695 28.6053 14.37206466709888 ZACUBE-1 (TSHEPISOSAT) 1 39417U 13066B 26257.84282502 .00004434 00000+0 33927-3 0 9994 2 39417 97.8141 220.6409 0039755 313.2857 46.5052 15.01806718694184 GOMX-1 1 39430U 13066Q 26257.78978744 .00001387 00000+0 21256-3 0 9998 2 39430 97.6434 92.6054 0128584 148.9378 211.9514 14.69694036683073 CUBEBUG-2 (LO-74) 1 39440U 13066AA 26257.80827016 .00003539 00000+0 32433-3 0 9997 2 39440 97.8984 207.2328 0058698 90.0799 270.7147 14.94263902690374 FUNCUBE-1 (AO-73) 1 39444U 13066AE 26257.91175247 .00006168 00000+0 37276-3 0 9996 2 39444 97.8385 231.3522 0033442 257.6109 102.1376 15.10593009693203 UWE-3 1 39446U 13066AG 26257.29854036 .00004110 00000+0 34884-3 0 9996 2 39446 97.8798 214.0443 0049176 24.7230 335.6333 14.97547557690914 UNISAT-6 1 40012U 14033C 26257.88013401 .00002477 00000+0 26664-3 0 9991 2 40012 97.8005 49.1027 0045687 131.6353 228.8791 14.88625910659509 DUCHIFAT-1 1 40021U 14033M 26256.70989409 .01461434 15217-2 15218-2 0 9995 2 40021 98.0135 330.2930 0008231 258.3689 101.6670 16.10844302669719 QB50P1 1 40025U 14033R 26257.02136533 .00005222 00000+0 24998-3 0 9992 2 40025 98.0961 274.4837 0006869 283.5730 76.4737 15.19438752666511 LILACSAT-2 1 40908U 15049K 26257.90648370 .00017244 00000+0 26536-3 0 9991 2 40908 97.4558 298.2994 0004587 286.2441 73.8308 15.54275898609676 FOX-1A (AO-85) 1 40967U 15058D 26257.68275864 .00001369 00000+0 12923-3 0 9991 2 40967 64.7758 0.7531 0138198 23.0846 337.6394 14.91389012126916 CAS-2T & KS-1Q 1 41847U 16066G 26257.23211286 .00000860 00000+0 13003-3 0 9993 2 41847 98.3755 331.9432 0340497 219.1767 138.4327 14.44840123517651 RADFXSAT (FOX-1B) 1 43017U 17073E 26257.40839724 .00006482 00000+0 27555-3 0 9998 2 43017 97.4553 122.8013 0148012 20.8764 339.8426 15.13898921478887 DIWATA-2B 1 43678U 18084H 26257.92230231 .00001234 00000+0 10247-3 0 9999 2 43678 98.1170 98.0810 0011560 227.5368 132.4878 15.00726515429671 ES'HAIL 2 1 43700U 18090A 26257.79408102 .00000137 00000+0 00000+0 0 9994 2 43700 0.0231 244.1714 0002408 318.3629 102.9176 1.00272891 28579 FOX-1CLIFF (AO-95) 1 43770U 18099N 26257.62311903 .00008878 00000+0 32330-3 0 9999 2 43770 97.4286 317.6039 0009013 41.0365 319.1551 15.28407823426872 ITASAT 1 43786U 18099AE 26257.11805822 .00005342 00000+0 25051-3 0 9993 2 43786 97.3936 306.8722 0013328 47.6971 312.5391 15.20014418426413 JY1SAT (JO-97) 1 43803U 18099AX 26257.40456493 .00013172 00000+0 37443-3 0 9999 2 43803 97.4033 320.6747 0004078 322.4190 37.6768 15.36281570427317 UWE-4 1 43880U 18111E 26257.75978690 .00035390 00000+0 59384-3 0 9999 2 43880 97.5819 190.6392 0007206 24.8337 335.3260 15.51703889424645 TIANYAN 01 1 44881U 19093C 26257.90344179 .00000935 00000+0 11117-3 0 9996 2 44881 97.7460 327.9169 0014168 146.0690 214.1435 14.86634861364744 RS-44 & BREEZE-KM R/B 1 44909U 19096E 26257.52050105 .00000013 00000+0 15325-4 0 9994 2 44909 82.5172 280.3462 0216440 295.6457 62.2427 12.79749361313776 SALSAT 1 46495U 20068K 26257.26571775 .00005740 00000+0 19484-3 0 9990 2 46495 97.8883 265.8489 0009220 1.1573 358.9687 15.30910957328981 XW-3 (CAS-9) 1 50466U 21131B 26257.95021453 .00000210 00000+0 78428-4 0 9995 2 50466 98.4979 349.8515 0004104 172.3845 187.7407 14.41424268248041 GREENCUBE (IO-117) 1 53109U 22080E 26257.05265458 -.00000003 00000+0 00000+0 0 9999 2 53109 70.1212 267.3355 0009219 270.3545 89.6058 6.42583783 97773 UMKA 1 (RS40S) 1 57172U 23091G 26257.87896862 .00005125 00000+0 22923-3 0 9996 2 57172 97.4953 316.2414 0013027 159.7274 200.4481 15.21675985177643 CUBESX-HSE 3 (RS42S) 1 57178U 23091N 26257.90483465 .00012804 00000+0 40080-3 0 9993 2 57178 97.4999 324.7134 0011356 129.2964 230.9287 15.33188470178164 MONITOR-3 (RS58S) 1 57180U 23091Q 26257.87788931 .00010139 00000+0 35757-3 0 9992 2 57180 97.4989 322.0400 0012249 137.8873 222.3311 15.29389494177996 MONITOR-4 (RS57S) 1 57182U 23091S 26257.91717708 .00010301 00000+0 36220-3 0 9990 2 57182 97.4983 322.0559 0012233 138.0272 222.1908 15.29483140178002 MONITOR-2 (RS39S) 1 57184U 23091U 26257.88617367 .00004163 00000+0 19848-3 0 9994 2 57184 97.4974 315.5875 0011686 153.1758 207.0084 15.19601225177573 SVYATOBOR 1 (RS60S) 1 57187U 23091X 26257.94920926 .00008575 00000+0 31693-3 0 9995 2 57187 97.4996 322.3044 0010290 130.6541 229.5594 15.27923359178013 VIZARD-METEO (RS38S) 1 57189U 23091Z 26257.84109331 .00017201 00000+0 45234-3 0 9997 2 57189 97.5005 329.2540 0008080 108.4543 251.7581 15.38617183178462 POLYTECH-UNIVERSE 3 (R*) 1 57191U 23091AB 26257.90078067 .00004516 00000+0 21338-3 0 9992 2 57191 97.4951 315.1071 0015452 170.9222 189.2295 15.19819134177573 UTMN 2 (RS27S) 1 57203U 23091AP 26257.93994443 .00013388 00000+0 40876-3 0 9999 2 57203 97.4999 326.4909 0008839 117.0422 243.1724 15.33995839178299 KUZGTU 1 (RS47S) 1 57217U 23091AV 26257.91533798 .00012001 00000+0 39429-3 0 9997 2 57217 97.4970 323.3834 0011544 133.6172 226.6029 15.31651372178102 SONATE-2 1 59112U 24043Q 26257.24223457 .00044891 00000+0 44284-3 0 9992 2 59112 97.5625 53.6316 0005343 228.2755 131.8048 15.65799600141799 MESAT1 1 60209U 24125G 26257.60035584 .00091177 00000+0 60109-3 0 9997 2 60209 97.2111 117.7888 0005893 221.9907 138.0907 15.75343986123583 GRBBETA 1 60237U 24128C 26257.53551427 .00002351 00000+0 16864-3 0 9997 2 60237 61.9881 262.6541 0027536 154.3428 205.9038 15.07170935119735 OOV-CUBE (TUBSAT-30) 1 60240U 24128F 26256.54282977 .00001228 00000+0 10524-3 0 9991 2 60240 61.9931 277.4049 0032208 154.2894 205.9807 15.03092161119396 COLIBRI-S (RS67S) 1 61746U 24199M 26257.89099573 .00026243 00000+0 44754-3 0 9994 2 61746 97.2801 132.7172 0006326 328.1926 31.8943 15.51310579151309 HORS 3 (RS81S) 1 61753U 24199U 26257.93584569 .00049073 00000+0 57177-3 0 9990 2 61753 97.2796 135.9055 0003112 332.4619 27.6474 15.61530461151534 HORS 4 (RS82S) 1 61754U 24199V 26257.93016234 .00085949 00000+0 72694-3 0 9993 2 61754 97.2726 137.8637 0001420 317.7619 42.3533 15.69469551151675 SIT-2086 1 61764U 24199AF 26257.89428398 .00051748 00000+0 64785-3 0 9999 2 61764 97.2753 136.0268 0003185 300.5766 59.5176 15.59633289148387 ALTAIR (RS65S) 1 61779U 24199AW 26257.90994922 .00009838 00000+0 26021-3 0 9992 2 61779 97.2873 126.6984 0011798 352.0305 8.0751 15.38534410150908 ASRTU-1 (AO-123) 1 61781U 24199AY 26257.92126774 .00007918 00000+0 22151-3 0 9996 2 61781 97.2843 125.7886 0013104 354.4861 5.6237 15.36845335147700 SAMSAT-IONOSPHERE (RS7*) 1 61784U 24199BB 26257.88689389 .00083662 00000+0 79719-3 0 9992 2 61784 97.2749 136.3588 0004047 320.9391 39.1577 15.66527582151569 RTU MIREA 1 (RS51S) 1 61785U 24199BC 26257.89167050 .00124122 00000+0 89116-3 0 9999 2 61785 97.2726 137.8370 0002462 313.9963 46.1098 15.73273473148518 LASARSAT 1 62391U 24247Q 26256.90123737 .00035804 00000+0 58455-3 0 9992 2 62391 44.9714 121.6324 0009070 196.0682 163.9923 15.51965735 97072 CROCUBE 1 62394U 24247T 26256.63683198 .00042932 00000+0 62992-3 0 9998 2 62394 44.9680 118.6820 0009410 202.9408 157.1066 15.54832267 97085 TEVEL2-4 1 63213U 25052D 26257.16710487 .00014626 00000+0 39934-3 0 9994 2 63213 97.3762 153.8308 0004121 120.1634 240.0020 15.37512722 83772 TEVEL2-5 1 63214U 25052E 26256.67827196 .00016374 00000+0 45012-3 0 9992 2 63214 97.3761 153.2599 0003957 122.7443 237.4184 15.37274978 83690 TEVEL2-6 1 63215U 25052F 26257.66897181 .00016538 00000+0 45460-3 0 9993 2 63215 97.3762 154.2394 0003945 121.0842 239.0791 15.37274681 83848 TEVEL2-1 1 63217U 25052H 26257.66707575 .00015494 00000+0 43503-3 0 9998 2 63217 97.3734 153.7478 0003807 131.2742 228.8831 15.36629515 83823 TEVEL2-3 1 63218U 25052J 26257.13691659 .00014256 00000+0 39975-3 0 9999 2 63218 97.3740 153.2516 0003583 130.0894 230.0664 15.36689120 83743 TEVEL2-2 1 63219U 25052K 26257.66669381 .00015745 00000+0 44183-3 0 9996 2 63219 97.3734 153.7515 0003807 131.7114 228.4456 15.36644016 83827 OTP-2 1 63235U 25052AB 26257.49230198 .00006618 00000+0 26763-3 0 9998 2 63235 97.3724 148.5935 0005402 190.8151 169.2971 15.25039566 83473 TEVEL2-9 1 63237U 25052AD 26257.96190720 .00016592 00000+0 49913-3 0 9992 2 63237 97.3794 153.2126 0006151 161.3065 198.8405 15.34432909 83788 TEVEL2-7 1 63238U 25052AE 26256.65221529 .00013320 00000+0 40647-3 0 9991 2 63238 97.3799 151.7775 0006007 167.3882 192.7513 15.34030967 83578 TEVEL2-8 1 63239U 25052AF 26257.96580514 .00016522 00000+0 50295-3 0 9996 2 63239 97.3799 153.0649 0006167 162.0883 198.0579 15.34058901 83775 INNOSAT 16 (RS92S7) 1 64878U 25155C 26257.90862362 .00005345 00000+0 20861-3 0 9995 2 64878 97.4680 224.8591 0008870 221.6330 138.4234 15.26310769 94356 GEOSCAN 6 (RS92S6) 1 64879U 25155D 26257.92246590 .00010717 00000+0 35222-3 0 9993 2 64879 97.4667 226.9761 0006369 203.6466 156.4484 15.31715728 94497 GEOSCAN 1 (RS92S1) 1 64880U 25155E 26257.95108725 .00011288 00000+0 36245-3 0 9995 2 64880 97.4663 227.2400 0006273 202.6146 157.4820 15.32450123 94511 239ALFEROV (RS61S) 1 64881U 25155F 26257.90652211 .00015065 00000+0 44255-3 0 9992 2 64881 97.4658 228.0941 0005818 197.9720 162.1318 15.35210747 94562 GEOSCAN 2 (RS92S2) 1 64890U 25155Q 26257.92985532 .00011443 00000+0 36460-3 0 9994 2 64890 97.4662 227.4050 0006168 186.4720 173.6443 15.32695747 94529 GEOSCAN 5 (RS92S5) 1 64891U 25155R 26257.94314733 .00015193 00000+0 44225-3 0 9990 2 64891 97.4652 228.3013 0004705 200.1121 159.9937 15.35501351 94583 GEOSCAN 4 (RS92S4) 1 64892U 25155S 26257.91703506 .00015511 00000+0 44866-3 0 9993 2 64892 97.4657 228.3533 0004561 198.8577 161.2499 15.35697421 94587 GEOSCAN 3 (RS92S3) 1 64893U 25155T 26257.91522878 .00019710 00000+0 52390-3 0 9991 2 64893 97.4641 229.0779 0004475 194.5307 165.5810 15.38278144 94639 INNOSAT 3 (RS92S0) 1 64894U 25155U 26257.95829855 .00050141 00000+0 87426-3 0 9992 2 64894 97.4578 232.0868 0004080 165.0414 195.0959 15.50564737 94841 KNACKSAT-2 1 67683U 98067XZ 26257.22317614 .00056336 00000+0 48483-3 0 9990 2 67683 51.6255 203.8302 0008001 159.8891 200.2423 15.68709818 34210 MARINA 1 69920U 26156BD 26257.68555158 .00001779 00000+0 18021-3 0 9999 2 69920 97.7444 156.9989 0006002 290.1030 69.9543 14.92163436 10346